STARLINK-35342 (66181 NORAD) Tracking and Keplerian Element Data

This shows tracking and keplerian element data for the satellite.

Feedback or suggestion? Click here.




ElementValue
Catalog66181
NameSTARLINK-35342
Epoch Orbit845
Epoch Day354.02306851
Epoch Year2025
RAAN255.4964
Inclination53.1589
Eccentricity7.94E-05
Argument of Perigee93.5548
Mean Anonmoly266.5544
Mean Motion15.30195635
Decay Rate7.67E-05
L11 66181U 25243E 25354.02306851 .00007670 00000+0 27084-3 0 9995
L22 66181 53.1589 255.4964 0000794 93.5548 266.5544 15.30195635 8451



Live tracking and technical data element details for STARLINK-35342 (NORAD 66181). STARLINK-35342 can be tracked NOW for your location showing map with azimuth and elevation plus other details from your city location.







IsCatalogInMostPopularTable: catalog: 66181, numindb: 14
Update: records affected: 1



GetName: 66181 STARLINK-35342

Hit Count: updated at: Thu, 21 May 2026 11:07:42 GMT